Hourly Data Report for September 12, 2017

All times are specified in Local Standard Time (LST). Add 1 hour to adjust for Daylight Saving Time where and when it is observed.

POND INLET A
NUNAVUT

72°41'22.000" N
77°58'08.000" W
61.60 m
2403206
71095
YIO

Download Data

Hourly Data (September 2017)
Hourly Data Report for September 12, 2017
Temp Definition
°C
Dew Point Temp Definition
°C
Rel Hum Definition
%
Wind Dir Definition
10's deg

Wind Spd Definition
km/h
Visibility Definition
km
Stn Press Definition
kPa
Hmdx Definition


Wind Chill Definition


Weather Definition


TIME
00:00 Legend Double Dagger -3.8 -5.2 90 14 17 16.1 100.17   -10 LegendNANA
01:00 Legend Double Dagger -3.7 -4.8 92 15 15 16.1 100.20   -9 LegendNANA
02:00 Legend Double Dagger -3.8 -5.1 91 14 8 16.1 100.24   -7 LegendNANA
03:00 Legend Double Dagger -3.4 -4.7 91 7 5 16.1 100.31   -5 LegendNANA
04:00 Legend Double Dagger -3.5 -4.5 93 LegendMM 4 16.1 100.35   -5 LegendNANA
05:00 Legend Double Dagger -3.7 -4.5 94 6 4 16.1 100.40   -5 LegendNANA
06:00 Legend Double Dagger -3.9 -4.6 95   0 16.1 100.43     LegendNANA
07:00 Legend Double Dagger -3.2 -3.9 95   0 16.1 100.47     LegendNANA
08:00 Legend Double Dagger -1.5 -3.1 89 LegendMM 4 16.1 100.49   -3 LegendNANA
09:00 Legend Double Dagger 0.0 -1.9 87   0 16.1 100.50     LegendNANA
10:00 Legend Double Dagger -0.6 -2.2 89   0 16.1 100.50     LegendNANA
11:00 Legend Double Dagger 1.8 -0.1 87 32 4 16.1 100.52     LegendNANA
12:00 Legend Double Dagger 2.4 0.5 87 LegendMM 4 16.1 100.55     LegendNANA
13:00 Legend Double Dagger 2.5 -2.2 71 5 8 16.1 100.58     LegendNANA
14:00 Legend Double Dagger 2.9 -2.0 70 2 8 16.1 100.61     LegendNANA
15:00 Legend Double Dagger 2.3 -1.5 76 4 8 16.1 100.62     LegendNANA
16:00 Legend Double Dagger 2.8 -1.2 75 LegendMM 4 16.1 100.65     LegendNANA
17:00 Legend Double Dagger 3.8 -1.6 68   0 16.1 100.68     LegendNANA
18:00 Legend Double Dagger 1.3 -1.8 80 LegendMM 8 16.1 100.71     LegendNANA
19:00 Legend Double Dagger 1.1 -1.8 81 22 5 16.1 100.75     LegendNANA
20:00 Legend Double Dagger 0.4 -3.3 76 7 11 16.1 100.78     LegendNANA
21:00 Legend Double Dagger 0.0 -3.9 75 10 9 16.1 100.78   -3 LegendNANA
22:00 Legend Double Dagger -1.0 -4.9 75 6 5 16.1 100.80   -3 LegendNANA
23:00 Legend Double Dagger -2.0 -5.0 80   0 16.1 100.83     LegendNANA

Notes on Data Quality.

Legend

  • E = Estimated
  • M = Missing
  • NA = Not Available
  • ‡ = Partner data that is not subject to review by the National Climate Archives
Date modified: